DLH519 MROC-EDDF

Flight info

Callsign DLH519
Flight time N/A
Altitude 37000
Route NANJO3C COLOR UP798 SPP DCT COLBY/N0467F380 UM594 GABUN/N0469F370 UM594 ALBBE/N0466F390 DCT GOVET DCT GTK DCT NETTA DCT EYSEL DCT CERDA DCT MNDEZ DCT MLLER/M081F390 DCT AYTTE DCT 33N050W 39N040W 45N030W/M081F410 48N020W DCT BEDRA DCT NASBA DCT GAPLI/N0463F410 DCT SIDDI DCT DAWLY DCT GIBSO L620 SAM M140 DVR UL9 KONAN UL607 SPI T180 NIVNU T847 IMCOM IMCOM1D
Aircraft A346/H-SDE2E3FGHIJ3J4J5M1RWXY/LB1D1

Departure

Time N/A
Airport Juan Santamaría International Airport (MROC)

Arrival

Time 2026-05-01 14:05
Airport Frankfurt Main Airport (EDDF)
Time Latitude Longitude Altitude Speed Heading
2026-05-01 13:28 49.85216 12.02400 38401 ft 470 kts 279°
2026-05-01 13:28 49.85596 11.97358 38405 ft 470 kts 279°
2026-05-01 13:29 49.87091 11.77188 38399 ft 470 kts 279°
2026-05-01 13:31 49.89263 11.46955 38388 ft 470 kts 279°
2026-05-01 13:32 49.91014 11.21771 38384 ft 468 kts 278°
2026-05-01 13:33 49.92703 10.96625 38213 ft 467 kts 278°
2026-05-01 13:34 49.94007 10.76662 38075 ft 463 kts 278°
2026-05-01 13:35 49.94641 10.66725 37919 ft 458 kts 278°
2026-05-01 13:35 49.94951 10.61818 37446 ft 455 kts 278°
2026-05-01 13:35 49.95562 10.52061 36451 ft 451 kts 278°
2026-05-01 13:36 49.95864 10.47219 36018 ft 447 kts 277°
2026-05-01 13:36 49.96160 10.42430 35632 ft 443 kts 277°
2026-05-01 13:36 49.96737 10.32957 34812 ft 437 kts 277°
2026-05-01 13:37 49.97020 10.28269 34396 ft 434 kts 277°
2026-05-01 13:37 49.97205 10.25184 34086 ft 432 kts 277°
2026-05-01 13:37 49.97482 10.20539 33615 ft 430 kts 277°
2026-05-01 13:37 49.97755 10.15928 33153 ft 427 kts 277°
2026-05-01 13:38 49.98292 10.06788 32254 ft 422 kts 277°
2026-05-01 13:38 49.98555 10.02261 31784 ft 419 kts 277°
2026-05-01 13:38 49.98815 9.97751 31350 ft 417 kts 277°
2026-05-01 13:39 49.99071 9.93280 30926 ft 414 kts 277°
2026-05-01 13:39 49.99325 9.88824 30496 ft 412 kts 277°
2026-05-01 13:39 49.99577 9.84391 29996 ft 409 kts 277°
2026-05-01 13:39 49.99825 9.79992 29514 ft 407 kts 277°
2026-05-01 13:40 50.00068 9.75618 29044 ft 404 kts 277°
2026-05-01 13:40 50.00309 9.71279 28581 ft 402 kts 277°
2026-05-01 13:40 50.00546 9.66958 28124 ft 400 kts 277°
2026-05-01 13:40 50.00782 9.62658 27659 ft 397 kts 277°
2026-05-01 13:41 50.01014 9.58389 27362 ft 393 kts 276°
2026-05-01 13:41 50.01241 9.54156 27339 ft 391 kts 277°
2026-05-01 13:41 50.01463 9.49950 26918 ft 389 kts 276°
2026-05-01 13:41 50.01687 9.45740 26381 ft 390 kts 276°
2026-05-01 13:42 50.01908 9.41536 25931 ft 389 kts 277°
2026-05-01 13:42 50.02131 9.37348 25512 ft 387 kts 276°
2026-05-01 13:42 50.02349 9.33177 25111 ft 385 kts 276°
2026-05-01 13:42 50.02563 9.29040 24734 ft 382 kts 276°
2026-05-01 13:43 50.02772 9.24921 24321 ft 381 kts 276°
2026-05-01 13:43 50.02982 9.20829 23915 ft 379 kts 276°
2026-05-01 13:43 50.03192 9.16743 23435 ft 378 kts 276°
2026-05-01 13:43 50.03401 9.12669 22977 ft 376 kts 276°
2026-05-01 13:44 50.03602 9.08633 22552 ft 373 kts 276°
2026-05-01 13:44 50.03798 9.04676 22148 ft 371 kts 276°
2026-05-01 13:44 50.03935 9.00670 21700 ft 370 kts 271°
2026-05-01 13:44 50.03751 8.96624 21255 ft 369 kts 262°
2026-05-01 13:45 50.03171 8.92666 20815 ft 367 kts 252°
2026-05-01 13:45 50.02365 8.89039 20421 ft 365 kts 250°
2026-05-01 13:45 50.01485 8.85352 20049 ft 362 kts 249°
2026-05-01 13:45 50.00606 8.81707 19730 ft 356 kts 249°
2026-05-01 13:46 49.99749 8.78119 19382 ft 351 kts 249°
2026-05-01 13:46 49.98909 8.74581 18760 ft 347 kts 249°
2026-05-01 13:46 49.98082 8.71085 18099 ft 342 kts 249°
2026-05-01 13:46 49.97259 8.67643 17444 ft 337 kts 249°
2026-05-01 13:47 49.96443 8.64246 16800 ft 333 kts 249°
2026-05-01 13:47 49.95636 8.60892 16163 ft 329 kts 249°
2026-05-01 13:47 49.94838 8.57577 15541 ft 326 kts 248°
2026-05-01 13:47 49.94045 8.54292 14922 ft 323 kts 248°
2026-05-01 13:48 49.93260 8.51041 14334 ft 320 kts 248°
2026-05-01 13:48 49.92483 8.47824 13684 ft 317 kts 248°
2026-05-01 13:48 49.91712 8.44623 13064 ft 317 kts 248°
2026-05-01 13:48 49.90938 8.41413 12373 ft 316 kts 248°
2026-05-01 13:49 49.90171 8.38236 11741 ft 312 kts 248°
2026-05-01 13:49 49.89411 8.35093 11141 ft 309 kts 248°
2026-05-01 13:49 49.88658 8.31993 10543 ft 305 kts 248°
2026-05-01 13:49 49.87912 8.28916 9915 ft 302 kts 248°
2026-05-01 13:50 49.87174 8.25879 9248 ft 299 kts 247°
2026-05-01 13:50 49.86443 8.22877 8599 ft 296 kts 247°
2026-05-01 13:50 49.85720 8.19907 8194 ft 289 kts 247°
2026-05-01 13:50 49.85021 8.17037 8081 ft 282 kts 247°
2026-05-01 13:51 49.84330 8.14201 7955 ft 280 kts 247°
2026-05-01 13:51 49.83647 8.11401 7782 ft 274 kts 247°
2026-05-01 13:51 49.82979 8.08670 7564 ft 267 kts 246°
2026-05-01 13:51 49.82327 8.06004 7392 ft 260 kts 246°
2026-05-01 13:52 49.81700 8.03437 7347 ft 249 kts 246°
2026-05-01 13:52 49.81086 8.00939 7348 ft 247 kts 246°
2026-05-01 13:52 49.80481 7.98476 7340 ft 239 kts 246°
2026-05-01 13:52 49.79964 7.96067 7328 ft 235 kts 259°
2026-05-01 13:53 49.80025 7.93538 7391 ft 239 kts 284°
2026-05-01 13:53 49.82023 7.89614 7456 ft 236 kts 334°
2026-05-01 13:53 49.83545 7.88681 7466 ft 234 kts 350°
2026-05-01 13:54 49.85130 7.88622 7433 ft 224 kts 14°
2026-05-01 13:54 49.86528 7.89478 7189 ft 212 kts 37°
2026-05-01 13:54 49.87565 7.91016 6899 ft 202 kts 58°
2026-05-01 13:54 49.88178 7.92922 6645 ft 194 kts 72°
2026-05-01 13:55 49.88636 7.94872 6374 ft 190 kts 74°
2026-05-01 13:55 49.89076 7.96795 6106 ft 187 kts 74°
2026-05-01 13:55 49.89516 7.98677 5830 ft 185 kts 74°
2026-05-01 13:55 49.89959 8.00538 5535 ft 183 kts 74°
2026-05-01 13:56 49.90403 8.02372 5317 ft 180 kts 75°
2026-05-01 13:56 49.90837 8.04166 5094 ft 179 kts 75°
2026-05-01 13:56 49.91283 8.05993 4835 ft 178 kts 75°
2026-05-01 13:56 49.91718 8.07753 4599 ft 177 kts 75°
2026-05-01 13:57 49.92164 8.09560 4373 ft 176 kts 76°
2026-05-01 13:57 49.92604 8.11340 4167 ft 176 kts 76°
2026-05-01 13:57 49.93036 8.13083 4073 ft 175 kts 76°
2026-05-01 13:57 49.93478 8.14873 4049 ft 175 kts 77°
2026-05-01 13:58 49.93912 8.16639 4001 ft 175 kts 77°
2026-05-01 13:58 49.94344 8.18413 3956 ft 175 kts 76°
2026-05-01 13:58 49.94776 8.20191 3955 ft 176 kts 76°
2026-05-01 13:58 49.95202 8.21955 3968 ft 176 kts 76°
2026-05-01 13:59 49.95639 8.23754 3977 ft 175 kts 76°
2026-05-01 13:59 49.96062 8.25493 3976 ft 174 kts 76°
2026-05-01 13:59 49.96493 8.27266 3822 ft 174 kts 76°
2026-05-01 13:59 49.96913 8.28975 3544 ft 165 kts 77°
2026-05-01 14:00 49.97308 8.30576 3275 ft 151 kts 78°
2026-05-01 14:00 49.97668 8.32038 3096 ft 142 kts 79°
2026-05-01 14:00 49.98009 8.33468 2935 ft 140 kts 79°
2026-05-01 14:00 49.98345 8.34892 2757 ft 140 kts 78°
2026-05-01 14:01 49.98682 8.36315 2589 ft 140 kts 78°
2026-05-01 14:01 49.99025 8.37751 2391 ft 143 kts 77°
2026-05-01 14:01 49.99357 8.39158 2158 ft 136 kts 78°
2026-05-01 14:01 49.99669 8.40552 1837 ft 141 kts 78°
2026-05-01 14:02 49.99989 8.42053 1800 ft 147 kts 76°
2026-05-01 14:02 50.00321 8.43487 1642 ft 137 kts 74°
2026-05-01 14:02 50.00700 8.44887 1468 ft 143 kts 73°
2026-05-01 14:02 50.01072 8.46318 1334 ft 142 kts 73°
2026-05-01 14:03 50.01411 8.47759 1131 ft 140 kts 72°
2026-05-01 14:03 50.01745 8.49193 927 ft 145 kts 71°
2026-05-01 14:03 50.02091 8.50581 747 ft 134 kts 73°
2026-05-01 14:03 50.02391 8.51908 537 ft 123 kts 70°
2026-05-01 14:04 50.02715 8.53252 452 ft 143 kts 73°
2026-05-01 14:04 50.03056 8.54679 368 ft 131 kts 71°
2026-05-01 14:04 50.03322 8.55785 360 ft 78 kts 69°
2026-05-01 14:04 50.03419 8.56191 362 ft 52 kts 70°
2026-05-01 14:05 50.03566 8.56802 364 ft 32 kts 66°
2026-05-01 14:05 50.03685 8.57058 367 ft 23 kts 42°
2026-05-01 14:05 50.03798 8.57208 371 ft 9 kts 40°
2026-05-01 14:05 50.03803 8.57213 371 ft 0 kts 40°
2026-05-01 14:07 50.03813 8.57226 371 ft 3 kts 40°
2026-05-01 14:07 50.03856 8.57282 375 ft 21 kts 39°
2026-05-01 14:07 50.03976 8.57504 377 ft 27 kts 66°
2026-05-01 14:08 50.04112 8.58070 380 ft 17 kts 69°
2026-05-01 14:08 50.04192 8.58176 378 ft 18 kts 24°
2026-05-01 14:08 50.04267 8.58205 379 ft 3 kts 354°
2026-05-01 14:08 50.04270 8.58204 379 ft 0 kts 351°
2026-05-01 14:09 50.04273 8.58203 379 ft 2 kts 351°
2026-05-01 14:09 50.04300 8.58191 378 ft 5 kts 342°
2026-05-01 14:09 50.04339 8.58172 377 ft 5 kts 342°
2026-05-01 14:10 50.04341 8.58170 379 ft 1 kts 342°
2026-05-01 14:10 50.04361 8.58160 378 ft 5 kts 342°
2026-05-01 14:10 50.04404 8.58137 379 ft 8 kts 338°
2026-05-01 14:10 50.04477 8.58092 376 ft 15 kts 339°
2026-05-01 14:11 50.04544 8.58054 376 ft 9 kts 340°
2026-05-01 14:11 50.04675 8.57976 370 ft 0 kts 340°
2026-05-01 14:11 50.04703 8.57872 366 ft 30 kts 257°
2026-05-01 14:12 50.04627 8.57562 368 ft 31 kts 250°
2026-05-01 14:12 50.04549 8.57235 369 ft 33 kts 249°
2026-05-01 14:12 50.04467 8.56892 370 ft 34 kts 250°
2026-05-01 14:12 50.04383 8.56538 372 ft 35 kts 248°
2026-05-01 14:13 50.04325 8.56297 369 ft 17 kts 250°
2026-05-01 14:13 50.04312 8.56246 367 ft 0 kts 250°
2026-05-01 14:14 50.04309 8.56234 369 ft 5 kts 250°
2026-05-01 14:14 50.04279 8.56107 364 ft 21 kts 250°
2026-05-01 14:14 50.04269 8.55990 375 ft 14 kts 298°
2026-05-01 14:14 50.04354 8.55925 364 ft 15 kts 340°
2026-05-01 14:15 50.04495 8.55942 370 ft 24 kts 16°
2026-05-01 14:15 50.04576 8.56065 371 ft 6 kts 56°
2026-05-01 14:15 50.04609 8.56089 370 ft 1 kts 356°
2026-05-01 14:15 50.04626 8.56081 370 ft 1 kts 335°
2026-05-01 14:16 50.04641 8.56068 368 ft 0 kts 330°
2026-05-01 14:16 50.04657 8.56057 371 ft 5 kts 336°
2026-05-01 14:16 50.04663 8.56053 368 ft 1 kts 340°
2026-05-01 14:16 50.04665 8.56051 368 ft 0 kts 338°